User: anonymous   Login
Location: Niverville
(49.6028°N, 97.0419°W)
Time: 19:19:55
(UTC-05:00)
Language:

BREEZE-M DEB (TANK) - Orbit

View from above orbital plane
View from above orbital plane
View from above satellite
View from above satellite

Ground track
Ground track

The orbit data is extracted from the following two-line orbital elements,

1 33374U 08044B   17175.32333758 +.00000506 +00000-0 +13087-3 0  9994
2 33374 049.4340 278.4710 5442574 088.9414 329.8007 04.87072424154355
Epoch (UTC): 24 June 2017 07:45:36
Eccentricity: 0.5442574
inclination: 49.4340°
perigee height: 321 km
apogee height: 16323 km
right ascension of ascending node: 278.4710°
argument of perigee: 88.9414°
revolutions per day: 4.87072424
mean anomaly at epoch: 329.8007°
orbit number at epoch: 15435

The dashed part of the orbit path shows where the satellite is in the earth's shadow,  

DLR